Location: Aumerval
(50.5070°N, 2.4031°E)
Time: 14:16:08
(UTC+00:00)

Daily predictions for brighter satellites

Satellite Brightness Start Highest point End
(mag) Time Altitude Azimuth Time Altitude Azimuth Time Altitude Azimuth
Cosmos 2251 Rocket 3.6 19:23:25 10° S 19:28:41 63° ESE 19:33:58 10° NNE
ATLAS 3B R/B 3.2 19:22:32 10° NW 19:29:27 64° SW 19:36:39 10° SSE
Cosmos 2279 Rocket 4.3 19:28:08 10° SSE 19:33:59 47° E 19:39:54 10° NNE
Cosmos 1980 3.8 19:31:51 10° NNW 19:37:35 76° ENE 19:43:16 10° SE
SL-16 R/B 3.2 19:32:51 10° NNW 19:38:01 34° NE 19:43:10 10° ESE
Cosmos 2026 Rocket 4.1 19:32:01 10° N 19:38:07 85° W 19:44:16 10° S
MOS 1 4.3 19:33:46 10° SSE 19:39:24 76° ENE 19:45:04 10° NNW
USA 102 3.6 19:37:38 10° NE 19:39:28 22° N 20:26:01 10° NNW
SME Rocket 3.6 19:35:46 10° NNE 19:39:39 71° WNW 19:44:39 10° SSW
Cosmos 2151 3.8 19:35:48 10° N 19:39:47 35° ENE 19:43:44 10° SE
Cosmos-2242 4.4 19:36:56 10° SE 19:40:09 21° E 19:43:22 10° NE
USA 215 3.7 19:35:30 10° E 19:41:56 62° NNE 19:48:23 10° WNW
FALCON 9 DEB 4.4 19:42:04 10° S 19:44:12 17° SE 19:46:18 10° E
SPOT 3 Rocket 4.0 19:41:23 10° SE 19:46:20 47° ENE 19:51:17 10° N
Cosmos 1455 2.8 19:44:06 10° SSW 19:47:48 60° WNW 19:51:31 10° N
COSMOS 2455 4.1 19:44:48 10° SSE 19:48:51 19° ESE 19:52:55 10° ENE
ATLAS 5 CENTAUR R/B 4.1 19:47:35 10° WNW 19:51:01 22° NNW 19:54:54 10° NE
SL-4 R/B 3.2 19:47:29 10° SSW 19:51:06 26° SE 19:54:54 10° E
IRS-1A Rocket 4.4 19:46:07 10° SSE 19:51:45 88° WSW 19:57:32 10° NNW
Cosmos 2219 Rocket 3.8 19:46:56 10° NW 19:52:01 34° WSW 19:57:03 10° S
USA 186 3.6 19:51:41 10° SSW 19:54:38 32° W 19:57:28 10° NNW
Cosmos 1076 Rocket 3.5 19:51:45 10° N 19:56:08 86° E 20:00:27 10° S
COSMOS 2428 4.1 19:51:05 10° NW 19:56:19 37° WSW 20:01:31 10° S
Cosmos 2266 Rocket 4.4 19:50:20 10° N 19:56:30 48° ENE 20:02:33 10° SSE
ATLAS 5 CENTAUR R/B 3.3 19:57:16 10° WSW 19:58:13 12° SW 19:59:17 10° SSW
IGS 5A 3.9 19:54:20 10° SE 19:58:16 46° ENE 20:02:15 10° N
OBJECT-B 2.0 19:56:13 10° S 19:59:19 42° W 20:02:27 10° NNW
Landsat 7 4.2 19:55:13 10° SE 19:59:43 47° ENE 20:04:17 10° N
Meteor 2-1 Rocket 4.5 19:56:08 10° SSW 20:02:01 82° WNW 20:08:01 10° N
Cosmos 2292 Rocket 4.3 19:55:54 10° N 20:02:39 85° E 20:07:37 10° S
Cosmos 44 4.0 19:58:29 10° SW 20:03:40 67° NW 20:09:05 10° NE
Cosmos 1356 4.1 20:00:41 10° NNW 20:04:03 55° W 20:07:23 10° S
Cosmos 1634 Rocket 4.3 19:57:49 10° SSW 20:04:05 73° W 20:10:21 10° N
Cosmos 2344 3.6 19:58:29 10° SW 20:05:55 87° SE 20:14:05 10° NE
ARIANE 5 R/B 3.8 20:04:04 14° ESE 20:07:06 28° ENE 20:10:50 10° N
Cosmos 407 Rocket 3.6 20:02:32 10° S 20:07:31 54° ESE 20:12:35 10° NNE
USA 245 4.1 20:05:50 16° ESE 20:07:46 25° ENE 20:10:17 10° NNE
Orbus 7S? 3.5 20:08:46 10° WSW 20:11:45 81° NNW 20:17:43 10° ENE
IRIDIUM 104 4.3 20:06:37 10° S 20:11:49 75° E 20:17:03 10° N
Meteor 2-3 Rocket 3.8 20:06:51 10° N 20:12:36 63° ENE 20:17:47 12° SSE
MetOp-B 4.3 20:09:16 12° SSE 20:14:08 61° ENE 20:19:26 10° N
RESURS DK-1 4.0 20:10:57 10° WSW 20:14:50 39° NW 20:18:46 10° NNE
Cosmos 405 Rocket 3.9 20:12:21 10° NNW 20:16:10 43° W 20:19:53 10° SSW
Cosmos 44 Rocket 4.4 20:14:58 10° SSE 20:19:01 24° ESE 20:23:10 10° ENE
Cosmos 1140 Rocket 3.4 20:15:44 10° S 20:20:46 61° ESE 20:25:51 10° NNE
IRIDIUM 114 4.3 20:15:45 10° S 20:20:58 89° E 20:26:14 10° N
Cosmos 1812 Rocket 3.6 20:18:17 10° S 20:22:44 89° ESE 20:27:15 10° N
CZ-2C R/B 4.0 20:19:44 10° NNE 20:24:00 43° E 20:27:43 13° S
Cosmos 1954 Rocket 4.5 20:20:15 10° S 20:24:58 37° ESE 20:29:42 10° NE
Cosmos 2237 Rocket 2.8 20:19:49 10° NW 20:25:20 55° WSW 20:30:47 10° S
Meteor 2-21 4.5 20:21:30 10° NNW 20:27:35 83° W 20:33:40 10° S
Timation 2 Rocket 4.1 20:21:18 10° S 20:27:42 59° ESE 20:33:51 10° NE
Abrixas rocket 2.7 20:27:42 10° WSW 20:28:20 18° WSW 20:28:20 18° WSW
IRIDIUM 103 4.5 20:24:55 10° S 20:30:07 78° W 20:35:23 10° N
Cosmos 2180 Rocket 4.5 20:24:16 10° S 20:30:26 90° WNW 20:36:36 10° N
Cosmos 1818 4.4 20:25:11 10° WSW 20:30:32 55° NW 20:35:56 10° NE
USA 229 DEB 4.5 20:26:30 10° NW 20:33:23 48° NNE 20:39:35 15° ESE
Cosmos 1766 Rocket 3.8 20:29:41 10° N 20:33:56 51° ENE 20:36:22 23° SE
Cosmos 2263 Rocket 4.0 20:34:38 12° E 20:34:38 12° E 20:36:32 10° ENE
BREEZE M DEB (TANK) 2.7 20:26:38 10° WSW 20:34:37 60° SSE 20:36:34 21° E
Spot 2 Rocket 3.7 20:32:07 20° SE 20:35:30 56° ENE 20:40:28 10° N
CARTOSAT-1 4.1 20:33:27 23° SE 20:35:45 43° ENE 20:39:52 10° N
Cosmos 1633 3.4 20:36:46 10° NNW 20:40:15 48° W 20:43:20 12° SSW
Cosmos 482 Debris 2.9 20:38:19 10° WNW 20:40:29 54° N 20:40:38 51° NNE
FALCON 9 DEB 3.1 20:38:09 10° SW 20:41:04 43° SSE 20:41:37 38° ESE
Cosmos 2227 Rocket 2.1 20:36:46 10° SSW 20:42:24 73° ESE 20:48:04 10° NNE
Cosmos 2082 4.1 20:37:28 10° S 20:42:40 41° ESE 20:47:55 10° NE
Okean 3 Rocket 3.7 20:38:36 10° N 20:43:07 64° ENE 20:45:39 25° SSE
Cosmos 1655 Rocket 4.2 20:38:29 10° NNW 20:44:46 73° W 20:50:54 10° S
FALCON 9 DEB 2.8 20:42:42 10° SW 20:45:40 53° SSE 20:46:28 39° E
Lacrosse 5 rocket 2.6 20:42:19 10° WNW 20:46:18 38° NNE 20:49:59 13° E
CZ-4C R/B 4.4 20:42:58 10° WNW 20:47:54 27° N 20:53:41 10° NE
Cosmos 2297 Rocket 2.2 20:43:25 10° SSW 20:49:04 84° WNW 20:54:47 10° NNE
Cosmos 468 Rocket 4.2 20:43:59 10° NNW 20:49:04 58° ENE 20:51:46 27° SE
Cosmos 1869 3.4 20:47:58 28° SSE 20:49:49 53° E 20:53:41 10° NNE
Resurs 01 Rocket 2.5 20:46:10 11° S 20:50:17 47° W 20:54:37 10° NNW
Genesis I 4.5 20:46:40 10° NW 20:50:20 35° WSW 20:52:33 20° S
NOSS 3-1 (A) 4.4 20:44:29 10° NW 20:51:25 54° NE 20:57:37 18° ESE
Meteor 1-4 Rocket 2.7 20:50:30 37° SE 20:51:26 48° E 20:54:52 10° NNE
ATLAS 2AS CENTAUR R/B 4.2 20:44:40 10° W 20:52:08 44° NNW 20:59:21 10° NE
Cosmos 841 Rocket 4.5 20:48:59 10° N 20:53:46 34° NE 20:56:15 22° ESE
FALCON 9 DEB 2.6 20:54:41 10° WSW 20:57:43 68° SSE 20:58:12 54° E
Cosmos 2219 3.3 20:52:43 10° SSW 20:58:20 79° WNW 21:04:01 10° NNE
Cosmos 2084 Rocket 3.2 20:57:23 10° SW 21:01:23 89° SE 21:05:29 10° NE
Cosmos 1763 Rocket 3.4 20:56:52 10° NNW 21:01:57 70° ENE 21:04:17 32° SE
Cosmos 1190 Rocket 4.2 21:00:03 10° SSW 21:05:16 71° WNW 21:10:30 10° NNE
Terra 2.3 21:03:52 31° ESE 21:05:41 47° ENE 21:10:16 10° N
FALCON 9 DEB 3.7 21:02:18 10° W 21:05:41 55° N 21:07:40 22° ENE
Meteor 2-8 Rocket 4.4 21:02:56 16° S 21:07:55 77° E 21:14:03 10° NNE
BREEZE-M DEB (TANK) 3.5 21:07:27 10° W 21:08:46 21° SW 21:08:46 21° SW
Cosmos 540 Rocket 3.9 21:04:41 10° NNW 21:09:40 48° ENE 21:11:41 31° ESE
Cosmos 921 Rocket 4.1 21:07:08 10° N 21:11:07 31° ENE 21:12:20 27° E
NOSS 3-1 (C) 4.0 21:08:09 10° NW 21:15:27 85° NE 21:20:23 28° SE
SPOT 5 2.7 21:14:08 37° SSE 21:15:57 78° ENE 21:20:51 10° NNW
Cosmos-2242 4.0 21:13:15 10° SSW 21:17:25 45° WNW 21:21:34 10° N
SPOT 1/Viking Rocket 4.1 21:14:16 20° S 21:17:44 55° W 21:22:53 10° NNW
Meteor 2-2 Rocket 4.4 21:15:41 32° SSE 21:18:05 53° E 21:23:35 10° NNE
FALCON 9 DEB 3.3 21:16:32 10° WSW 21:18:54 50° SW 21:18:54 50° SW
Cosmos 1842 Rocket 3.8 21:20:27 44° SE 21:21:16 51° E 21:25:38 10° NNE
SL-16 R/B 2.7 21:16:52 10° NW 21:22:25 54° WSW 21:25:19 27° S
Cosmos 676 Rocket 4.0 21:18:28 10° SSW 21:23:40 79° WNW 21:28:53 10° NNE
USA 215 3.3 21:21:35 31° SE 21:24:56 70° SW 21:31:29 10° WNW
SL-08 ROCKET BODY 4.4 21:23:14 10° N 21:29:17 65° ENE 21:31:37 37° SE
SL-4 R/B 2.1 21:25:49 10° WSW 21:30:18 75° SSE 21:33:32 20° ENE
Cosmos 1408 Rocket 3.5 21:29:21 10° NNW 21:33:41 77° W 21:34:51 47° S
COSMOS 2455 2.8 21:27:57 10° SSW 21:33:59 88° SE 21:40:04 10° NE
ERS-1 Rocket 3.1 21:33:52 36° S 21:35:53 71° WSW 21:40:56 10° NNW
ATLAS 5 CENTAUR R/B 4.2 21:33:42 10° NW 21:37:21 20° NNE 21:41:26 10° ENE
Cosmos 1862 3.3 21:36:59 10° NNW 21:40:57 77° W 21:41:30 63° SSW
Sich 1 4.0 21:37:23 10° N 21:41:15 32° ENE 21:41:28 32° ENE
Cosmos 1805 Rocket 4.1 21:37:30 10° N 21:41:39 41° ENE 21:41:58 40° E
Cosmos 2221 2.3 21:41:54 61° S 21:42:36 82° E 21:46:55 10° NNE
ARIANE 5 R/B 3.7 21:41:36 26° SW 21:43:26 38° W 21:47:33 10° NNW
Meteor 2-15 Rocket 4.3 21:43:55 33° S 21:46:52 86° E 21:52:58 10° NNE
Cosmos 1943 3.2 21:42:46 10° NNW 21:48:25 71° ENE 21:50:06 45° SE
Cosmos 1745 Rocket 4.0 21:45:04 10° N 21:51:23 67° ENE 21:53:25 44° SE
Cosmos 1570 Rocket 4.1 21:46:43 10° NNW 21:52:00 68° ENE 21:53:15 50° ESE
Cosmos 1743 Rocket 3.4 21:48:11 10° N 21:52:33 90° ENE 21:53:02 70° S
SeaSat 1 4.0 21:48:44 10° NE 21:51:19 21° E 21:51:19 21° E
NOSS 2-1 (C) 3.8 21:56:12 42° NE 21:56:12 42° NE 21:58:43 10° NE
Cosmos 1709 Rocket 4.5 21:50:32 10° N 21:56:29 45° ENE 21:58:09 37° ESE
Cosmos 44 Rocket 3.7 21:55:03 10° SW 22:00:08 69° NW 22:05:23 10° NE
NOSS 2-1 (D) 3.7 22:02:34 47° NNE 22:02:34 47° NNE 22:05:19 10° NE
Cosmos 1633 Rocket 4.3 21:58:23 10° N 22:02:10 28° ENE 22:02:12 28° ENE
TSX-5 4.2 22:01:04 25° SW 22:03:38 66° NW 22:07:27 10° NNE
Cosmos 1606 3.1 22:06:56 55° NE 22:06:56 55° NE 22:10:00 10° NNE
BREEZE-M DEB (TANK) 3.9 21:59:36 10° WNW 22:06:19 40° SW 22:06:19 40° SW
Cosmos 1741 Rocket 3.9 22:05:12 43° SSW 22:07:01 87° WNW 22:12:20 10° NNE
S3M 4.0 22:05:25 47° SSE 22:07:15 68° E 22:13:37 10° NNE
Cosmos 1850 Rocket 4.0 22:08:07 40° SSW 22:10:02 80° WNW 22:15:19 10° NNE
Cosmos 1500 Rocket 3.8 22:06:09 10° NNW 22:10:34 60° W 22:11:06 55° SW
Cosmos 1666 Rocket 4.3 22:08:45 10° N 22:12:59 41° ENE 22:12:59 41° ENE
Cosmos 2263 Rocket 2.0 22:16:15 59° S 22:17:11 72° ESE 22:22:45 10° NNE
Aureole 1 Rocket 3.4 22:17:34 48° SSW 22:19:06 83° WNW 22:23:33 10° NNE
H-2A R/B 4.1 22:16:13 10° N 22:20:20 52° WNW 22:21:10 44° WSW
Cosmos 1386 Rocket 4.4 22:14:44 10° NNW 22:20:48 81° W 22:22:22 52° S
USA 229 DEB 4.0 22:17:32 10° NW 22:24:43 65° SW 22:27:01 45° S
USA 229 4.0 22:17:38 10° NW 22:24:49 65° SW 22:27:07 45° S
Lacrosse 5 rocket 1.5 22:21:29 10° WNW 22:25:34 79° WNW 22:25:34 79° WNW
Cosmos 2227 Rocket 4.2 22:22:13 10° W 22:27:01 27° NW 22:31:51 10° NNE
Cosmos 1782 4.5 22:28:48 25° ENE 22:28:48 25° ENE 22:31:08 10° NNE
Cosmos 1844 Rocket 4.2 22:30:56 21° E 22:30:56 21° E 22:34:01 10° NE
Cosmos 2208 Rocket 4.0 22:26:49 10° NNW 22:32:10 74° WSW 22:32:47 66° SSW
SL-24 DEB 4.3 22:32:22 64° ENE 22:32:22 64° ENE 22:36:51 10° N
Cosmos 1151 Rocket 4.2 22:34:17 33° ENE 22:34:17 33° ENE 22:37:22 10° NNE
ALOS 2 3.3 22:35:37 42° ENE 22:35:37 42° ENE 22:39:40 10° N
Cosmos 1553 Rocket 4.3 22:33:03 34° SW 22:35:37 58° WNW 22:41:40 10° N
Cosmos 841 Rocket 4.1 22:30:51 10° NW 22:35:45 42° WSW 22:36:20 41° WSW
Cosmos 1603 4.0 22:31:33 10° NW 22:37:06 53° WSW 22:37:52 49° SW
CZ-4C R/B 4.3 22:32:46 10° NW 22:38:24 31° NNE 22:44:59 10° ENE
NOSS 3-1 (A) 4.2 22:35:22 10° NW 22:42:41 58° SW 22:45:03 45° S
Terra 3.3 22:42:44 24° WSW 22:43:39 25° W 22:47:38 10° NW
Cosmos 1933 3.9 22:45:09 55° NNE 22:45:09 55° NNE 22:48:24 10° NNE
Cosmos 921 Rocket 4.2 22:45:26 10° NW 22:49:08 34° W 22:49:08 34° W
Meteor 2-17 Rocket 4.4 22:48:19 10° NNW 22:54:28 75° W 22:55:34 60° SSW
Meteor 1-14 Rocket 4.3 22:57:49 10° N 23:03:52 76° ENE 23:04:37 66° SE
Cosmos 1437 Rocket 3.9 23:05:15 40° NW 23:05:15 40° NW 23:08:11 10° N
SL-4 R/B 2.8 23:05:27 10° W 23:09:09 55° WNW 23:09:09 55° WNW
NOSS 2-2 (C) 4.2 23:08:23 10° NW 23:13:32 87° NE 23:14:35 64° SE
Cosmos 2184 Rocket 4.1 23:07:37 10° N 23:13:56 64° ENE 23:14:58 56° ESE
NOSS 2-2 (E) 4.3 23:09:25 10° NW 23:14:44 82° SW 23:15:39 67° SSE
Cosmos 2315 Rocket 4.1 23:16:01 57° SW 23:17:19 74° WNW 23:23:43 10° N
Cosmos 1515 Rocket 4.4 23:19:41 44° NE 23:19:41 44° NE 23:23:08 10° NNE
Cosmos 1666 4.1 23:17:27 10° N 23:20:00 35° NNE 23:20:00 35° NNE
ATLAS 5 CENTAUR R/B 3.2 23:18:18 10° NW 23:23:15 41° NE 23:27:06 19° E
SeaSat 1 2.7 23:25:42 10° NNE 23:30:36 64° NW 23:31:05 60° W
Cosmos 1470 Rocket 4.1 23:28:37 10° NNW 23:32:15 55° NW 23:32:15 55° NW
Iridium 4 Rocket 3.7 23:38:02 58° W 23:38:09 58° W 23:43:33 10° N
Nimbus 7 Rocket 4.2 23:33:32 10° NNE 23:39:27 78° ESE 23:39:53 73° SSE
Cosmos 1633 Rocket 4.3 23:36:03 10° NNW 23:39:17 32° WNW 23:39:17 32° WNW
Cosmos 2074 Rocket 3.8 23:34:06 10° N 23:40:24 85° W 23:41:12 70° S
Cosmos 1844 3.8 23:41:40 62° ESE 23:41:40 62° ESE 23:47:10 10° NE
COSMOS 2406 4.3 23:37:14 10° NNW 23:42:33 39° NE 23:44:55 27° E
Cosmos 1503 Rocket 4.2 23:44:44 61° E 23:44:44 61° E 23:49:24 10° NNE
USA 281 3.4 23:43:08 44° ESE 23:45:13 67° ENE 23:51:46 10° NNW
Cosmos 1812 4.0 23:48:00 40° N 23:48:00 40° N 23:50:36 10° N
Cosmos 1933 Rocket 4.2 23:44:50 10° NNW 23:48:19 52° NW 23:48:19 52° NW
